Time,TemperatureF,DewpointF,PressureIn,WindDirection,WindDirectionDegrees,WindSpeedMPH,WindSpeedGustMPH,Humidity,HourlyPrecipIn,Conditions,Clouds,dailyrainin,SoftwareType,DateUTC
2013-06-28 00:14:00,57.2,56.6,29.86,ENE,67,3.1,-999.0,98,-99.99,,,0.00,Acu-Link.com,2013-06-28 04:14:00,
2013-06-28 00:29:00,57.0,56.5,29.86,ENE,67,2.7,-999.0,98,-99.99,,,0.00,Acu-Link.com,2013-06-28 04:29:00,
2013-06-28 00:44:00,57.0,56.5,29.86,NE,45,4.3,-999.0,98,-99.99,,,0.00,Acu-Link.com,2013-06-28 04:44:00,
2013-06-28 01:00:00,57.0,56.5,29.84,East,90,4.3,-999.0,98,-99.99,,,0.00,Acu-Link.com,2013-06-28 05:00:00,
2013-06-28 01:15:00,57.0,56.5,29.83,East,90,1.1,-999.0,98,-99.99,,,0.00,Acu-Link.com,2013-06-28 05:15:00,
2013-06-28 01:30:00,57.0,56.5,29.82,ENE,67,4.3,-999.0,98,-99.99,,,0.00,Acu-Link.com,2013-06-28 05:30:00,
2013-06-28 01:45:00,56.8,56.3,29.82,ENE,67,2.2,-999.0,98,-99.99,,,0.00,Acu-Link.com,2013-06-28 05:45:00,
2013-06-28 02:00:00,56.7,56.1,29.81,NE,45,2.7,-999.0,98,-99.99,,,0.00,Acu-Link.com,2013-06-28 06:00:00,
2013-06-28 02:16:00,56.3,55.7,29.80,NE,45,2.7,-999.0,98,-99.99,,,0.00,Acu-Link.com,2013-06-28 06:16:00,
2013-06-28 02:31:00,56.1,55.6,29.80,ENE,67,0.0,-999.0,98,-99.99,,,0.00,Acu-Link.com,2013-06-28 06:31:00,
2013-06-28 02:46:00,56.1,55.6,29.79,East,90,2.2,-999.0,98,-99.99,,,0.00,Acu-Link.com,2013-06-28 06:46:00,
2013-06-28 03:01:00,56.1,55.6,29.79,ENE,67,2.7,-999.0,98,-99.99,,,0.00,Acu-Link.com,2013-06-28 07:01:00,
2013-06-28 03:16:00,55.9,55.4,29.78,ENE,67,2.7,-999.0,98,-99.99,,,0.00,Acu-Link.com,2013-06-28 07:16:00,
2013-06-28 03:32:00,55.9,55.4,29.78,East,90,1.6,-999.0,98,-99.99,,,0.00,Acu-Link.com,2013-06-28 07:32:00,
2013-06-28 03:47:00,55.8,55.2,29.78,ENE,67,2.2,-999.0,98,-99.99,,,0.00,Acu-Link.com,2013-06-28 07:47:00,
2013-06-28 04:02:00,55.8,55.2,29.76,ENE,67,3.8,-999.0,98,-99.99,,,0.00,Acu-Link.com,2013-06-28 08:02:00,
2013-06-28 04:18:00,55.9,55.4,29.76,East,90,2.2,-999.0,98,-99.99,,,0.00,Acu-Link.com,2013-06-28 08:18:00,
2013-06-28 04:33:00,55.9,55.4,29.76,ENE,67,0.0,-999.0,98,-99.99,,,0.00,Acu-Link.com,2013-06-28 08:33:00,
2013-06-28 04:48:00,55.8,55.2,29.75,ENE,67,1.6,-999.0,98,-99.99,,,0.00,Acu-Link.com,2013-06-28 08:48:00,
2013-06-28 05:03:00,55.6,55.0,29.75,ENE,67,0.0,-999.0,98,-99.99,,,0.00,Acu-Link.com,2013-06-28 09:03:00,
2013-06-28 05:18:00,55.4,54.8,29.73,ENE,67,1.6,-999.0,98,-99.99,,,0.00,Acu-Link.com,2013-06-28 09:18:00,
2013-06-28 05:33:00,55.2,54.7,29.74,ESE,112,2.2,-999.0,98,-99.99,,,0.00,Acu-Link.com,2013-06-28 09:33:00,
2013-06-28 05:48:00,55.0,54.5,29.73,NE,45,2.7,-999.0,98,-99.99,,,0.00,Acu-Link.com,2013-06-28 09:48:00,
2013-06-28 06:04:00,55.0,54.5,29.73,ENE,67,2.7,-999.0,98,-99.99,,,0.00,Acu-Link.com,2013-06-28 10:04:00,
2013-06-28 06:19:00,54.9,54.3,29.72,East,90,3.8,-999.0,98,-99.99,,,0.00,Acu-Link.com,2013-06-28 10:19:00,
2013-06-28 06:34:00,54.9,54.3,29.73,East,90,2.7,-999.0,98,-99.99,,,0.00,Acu-Link.com,2013-06-28 10:34:00,
2013-06-28 06:49:00,54.7,54.1,29.71,ENE,67,3.8,-999.0,98,-99.99,,,0.00,Acu-Link.com,2013-06-28 10:49:00,
2013-06-28 07:04:00,54.7,54.1,29.72,ENE,67,2.7,-999.0,98,-99.99,,,0.00,Acu-Link.com,2013-06-28 11:04:00,
2013-06-28 07:20:00,54.7,54.1,29.71,NE,45,3.1,-999.0,98,-99.99,,,0.00,Acu-Link.com,2013-06-28 11:20:00,
2013-06-28 07:35:00,54.9,54.3,29.70,NE,45,3.8,-999.0,98,-99.99,,,0.00,Acu-Link.com,2013-06-28 11:35:00,
2013-06-28 07:50:00,54.9,54.3,29.70,ENE,67,3.8,-999.0,98,-99.99,,,0.01,Acu-Link.com,2013-06-28 11:50:00,
2013-06-28 08:05:00,55.0,54.5,29.70,NE,45,2.7,-999.0,98,-99.99,,,0.01,Acu-Link.com,2013-06-28 12:05:00,
2013-06-28 08:20:00,55.0,54.5,29.70,ENE,67,0.0,-999.0,98,-99.99,,,0.04,Acu-Link.com,2013-06-28 12:20:00,
2013-06-28 08:36:00,55.0,54.5,29.69,ENE,67,2.2,-999.0,98,-99.99,,,0.05,Acu-Link.com,2013-06-28 12:36:00,
2013-06-28 08:51:00,55.4,54.8,29.68,ENE,67,3.8,-999.0,98,-99.99,,,0.06,Acu-Link.com,2013-06-28 12:51:00,
2013-06-28 09:06:00,55.4,54.8,29.67,ENE,67,3.1,-999.0,98,-99.99,,,0.08,Acu-Link.com,2013-06-28 13:06:00,
2013-06-28 09:21:00,55.4,54.8,29.67,ENE,67,3.1,-999.0,98,-99.99,,,0.18,Acu-Link.com,2013-06-28 13:21:00,
2013-06-28 09:36:00,55.6,55.0,29.67,NE,45,4.3,-999.0,98,-99.99,,,0.22,Acu-Link.com,2013-06-28 13:36:00,
2013-06-28 09:52:00,55.8,55.2,29.65,ENE,67,4.3,-999.0,98,-99.99,,,0.25,Acu-Link.com,2013-06-28 13:52:00,
2013-06-28 10:07:00,55.9,55.4,29.64,East,90,3.1,-999.0,98,-99.99,,,0.27,Acu-Link.com,2013-06-28 14:07:00,
2013-06-28 10:22:00,55.9,55.4,29.64,ENE,67,3.8,-999.0,98,-99.99,,,0.34,Acu-Link.com,2013-06-28 14:22:00,
2013-06-28 10:37:00,55.8,55.2,29.63,East,90,2.7,-999.0,98,-99.99,,,0.35,Acu-Link.com,2013-06-28 14:37:00,
2013-06-28 10:52:00,55.9,55.4,29.62,ENE,67,3.8,-999.0,98,-99.99,,,0.39,Acu-Link.com,2013-06-28 14:52:00,
2013-06-28 11:08:00,56.1,55.6,29.61,NE,45,4.3,-999.0,98,-99.99,,,0.51,Acu-Link.com,2013-06-28 15:08:00,
2013-06-28 11:23:00,56.1,55.6,29.60,ENE,67,4.3,-999.0,98,-99.99,,,0.56,Acu-Link.com,2013-06-28 15:23:00,
2013-06-28 11:38:00,56.3,55.7,29.59,NNE,22,3.1,-999.0,98,-99.99,,,0.60,Acu-Link.com,2013-06-28 15:38:00,
2013-06-28 11:53:00,56.5,55.9,29.58,East,90,3.8,-999.0,98,-99.99,,,0.65,Acu-Link.com,2013-06-28 15:53:00,
2013-06-28 12:08:00,56.5,55.9,29.58,ENE,67,4.3,-999.0,98,-99.99,,,0.75,Acu-Link.com,2013-06-28 16:08:00,
2013-06-28 12:24:00,56.7,56.1,29.57,East,90,1.6,-999.0,98,-99.99,,,0.79,Acu-Link.com,2013-06-28 16:24:00,
2013-06-28 12:39:00,56.5,55.9,29.57,East,90,3.1,-999.0,98,-99.99,,,0.80,Acu-Link.com,2013-06-28 16:39:00,
2013-06-28 12:54:00,56.7,56.1,29.57,ENE,67,2.7,-999.0,98,-99.99,,,0.83,Acu-Link.com,2013-06-28 16:54:00,
2013-06-28 13:09:00,56.5,55.9,29.56,East,90,4.3,-999.0,98,-99.99,,,0.94,Acu-Link.com,2013-06-28 17:09:00,
2013-06-28 13:25:00,56.5,55.9,29.55,ENE,67,2.7,-999.0,98,-99.99,,,1.00,Acu-Link.com,2013-06-28 17:25:00,
2013-06-28 13:40:00,56.5,55.9,29.55,ENE,67,2.7,-999.0,98,-99.99,,,1.09,Acu-Link.com,2013-06-28 17:40:00,
2013-06-28 13:55:00,56.3,55.7,29.54,ENE,67,3.1,-999.0,98,-99.99,,,1.21,Acu-Link.com,2013-06-28 17:55:00,
2013-06-28 14:10:00,56.5,55.9,29.54,ENE,67,2.2,-999.0,98,-99.99,,,1.33,Acu-Link.com,2013-06-28 18:10:00,
2013-06-28 14:25:00,56.3,55.7,29.54,NE,45,3.8,-999.0,98,-99.99,,,1.38,Acu-Link.com,2013-06-28 18:25:00,
2013-06-28 14:41:00,56.1,55.6,29.54,ENE,67,3.1,-999.0,98,-99.99,,,1.41,Acu-Link.com,2013-06-28 18:41:00,
2013-06-28 14:56:00,55.9,55.4,29.53,ENE,67,2.7,-999.0,98,-99.99,,,1.46,Acu-Link.com,2013-06-28 18:56:00,
2013-06-28 15:11:00,55.9,55.4,29.53,East,90,5.1,-999.0,98,-99.99,,,1.54,Acu-Link.com,2013-06-28 19:11:00,
2013-06-28 15:26:00,55.9,55.4,29.53,NE,45,3.1,-999.0,98,-99.99,,,1.58,Acu-Link.com,2013-06-28 19:26:00,
2013-06-28 15:41:00,55.8,55.2,29.52,ENE,67,2.7,-999.0,98,-99.99,,,1.60,Acu-Link.com,2013-06-28 19:41:00,
2013-06-28 15:56:00,55.8,55.2,29.52,NE,45,3.8,-999.0,98,-99.99,,,1.65,Acu-Link.com,2013-06-28 19:56:00,
2013-06-28 16:12:00,55.8,55.2,29.52,East,90,0.0,-999.0,98,-99.99,,,1.67,Acu-Link.com,2013-06-28 20:12:00,
2013-06-28 16:27:00,55.6,55.0,29.52,ESE,112,2.7,-999.0,98,-99.99,,,1.69,Acu-Link.com,2013-06-28 20:27:00,
2013-06-28 16:42:00,55.4,54.8,29.52,North,0,0.0,-999.0,98,-99.99,,,1.72,Acu-Link.com,2013-06-28 20:42:00,
2013-06-28 16:57:00,55.6,55.0,29.52,NNE,22,0.0,-999.0,98,-99.99,,,1.76,Acu-Link.com,2013-06-28 20:57:00,
2013-06-28 17:12:00,55.4,54.8,29.53,East,90,1.1,-999.0,98,-99.99,,,1.77,Acu-Link.com,2013-06-28 21:12:00,
2013-06-28 17:28:00,55.4,54.8,29.52,ENE,67,0.0,-999.0,98,-99.99,,,1.78,Acu-Link.com,2013-06-28 21:28:00,
2013-06-28 17:43:00,55.4,54.8,29.52,SE,135,0.0,-999.0,98,-99.99,,,1.79,Acu-Link.com,2013-06-28 21:43:00,
2013-06-28 17:58:00,55.4,54.8,29.53,NE,45,0.0,-999.0,98,-99.99,,,1.79,Acu-Link.com,2013-06-28 21:58:00,
2013-06-28 18:13:00,55.4,54.8,29.52,North,0,0.0,-999.0,98,-99.99,,,1.79,Acu-Link.com,2013-06-28 22:13:00,
2013-06-28 18:28:00,55.4,54.8,29.53,North,0,0.0,-999.0,98,-99.99,,,1.80,Acu-Link.com,2013-06-28 22:28:00,
2013-06-28 18:44:00,55.4,54.8,29.53,ESE,112,0.0,-999.0,98,-99.99,,,1.80,Acu-Link.com,2013-06-28 22:44:00,
2013-06-28 18:59:00,55.4,54.8,29.53,East,90,0.0,-999.0,98,-99.99,,,1.81,Acu-Link.com,2013-06-28 22:59:00,
2013-06-28 19:14:00,55.4,54.8,29.53,SSE,157,0.0,-999.0,98,-99.99,,,1.81,Acu-Link.com,2013-06-28 23:14:00,
2013-06-28 19:29:00,55.4,54.8,29.53,NNW,337,0.0,-999.0,98,-99.99,,,1.81,Acu-Link.com,2013-06-28 23:29:00,
2013-06-28 19:44:00,55.4,54.8,29.53,NNW,337,0.0,-999.0,98,-99.99,,,1.83,Acu-Link.com,2013-06-28 23:44:00,
2013-06-28 20:00:00,55.4,54.8,29.53,NNW,337,0.0,-999.0,98,-99.99,,,1.84,Acu-Link.com,2013-06-29 00:00:00,
2013-06-28 20:15:00,55.4,54.8,29.53,NNW,337,0.0,-999.0,98,-99.99,,,1.84,Acu-Link.com,2013-06-29 00:15:00,
2013-06-28 20:30:00,55.2,54.7,29.53,NNW,337,0.0,-999.0,98,-99.99,,,1.84,Acu-Link.com,2013-06-29 00:30:00,
2013-06-28 20:45:00,55.2,54.7,29.53,NNW,337,0.0,-999.0,98,-99.99,,,1.85,Acu-Link.com,2013-06-29 00:45:00,
2013-06-28 21:00:00,55.2,54.7,29.52,NNW,337,0.0,-999.0,98,-99.99,,,1.85,Acu-Link.com,2013-06-29 01:00:00,
2013-06-28 21:16:00,55.2,54.7,29.53,NNW,337,0.0,-999.0,98,-99.99,,,1.86,Acu-Link.com,2013-06-29 01:16:00,
2013-06-28 21:31:00,55.4,54.8,29.54,NNW,337,0.0,-999.0,98,-99.99,,,1.86,Acu-Link.com,2013-06-29 01:31:00,
2013-06-28 21:46:00,55.4,54.8,29.54,NNW,337,0.0,-999.0,98,-99.99,,,1.86,Acu-Link.com,2013-06-29 01:46:00,
2013-06-28 22:01:00,55.4,54.8,29.54,NNW,337,0.0,-999.0,98,-99.99,,,1.87,Acu-Link.com,2013-06-29 02:01:00,
2013-06-28 22:16:00,55.4,54.8,29.53,NNW,337,0.0,-999.0,98,-99.99,,,1.87,Acu-Link.com,2013-06-29 02:16:00,
2013-06-28 22:32:00,55.4,54.8,29.53,NNW,337,0.0,-999.0,98,-99.99,,,1.87,Acu-Link.com,2013-06-29 02:32:00,
2013-06-28 22:47:00,55.4,54.8,29.54,NNW,337,0.0,-999.0,98,-99.99,,,1.89,Acu-Link.com,2013-06-29 02:47:00,
2013-06-28 23:02:00,55.4,54.8,29.54,NNW,337,0.0,-999.0,98,-99.99,,,1.89,Acu-Link.com,2013-06-29 03:02:00,
2013-06-28 23:17:00,55.4,54.8,29.54,NNW,337,0.0,-999.0,98,-99.99,,,1.90,Acu-Link.com,2013-06-29 03:17:00,
2013-06-28 23:32:00,55.4,54.8,29.53,NNW,337,0.0,-999.0,98,-99.99,,,1.90,Acu-Link.com,2013-06-29 03:32:00,
2013-06-28 23:48:00,55.2,54.7,29.53,NNW,337,0.0,-999.0,98,-99.99,,,1.91,Acu-Link.com,2013-06-29 03:48:00,